Home   Weather   Norden   Past weeks

Flag for Germany Past Weather in Norden, Lower Saxony, Germany — Yesterday and Last 2 Weeks

Now
64 °F

Overcast.


Feels Like: 64 °F
Forecast: 60 / 67 °F
Wind: 6 mph from Northwest

Location: Emden-Koenigspolder

Current Time: Jul 25, 2017 at 10:59:09 am

Latest Report: Jul 25, 2017 at 10:00 am


Visibility: 19 mi

Pressure: 29.76 "Hg

Humidity: 84%

Dew Point: 59 °F

Location of NordenLocation

Past Weather in Norden — Graph

°F

Norden Temperature Yesterday

Maximum temperature yesterday: 63 °F (at 6:00 pm)
Minimum temperature yesterday: 57 °F (at 6:00 am)
Average temperature yesterday: 60 °F

High & Low Weather Summary for the Past Weeks

 TemperatureHumidityPressure
High81 °F (Jul 19, 3:00 pm)100% (Jul 18, 6:00 am)30.22 "Hg (Jul 18, 6:00 am)
Low48 °F (Jul 18, 6:00 am)49% (Jul 14, 1:00 pm)29.72 "Hg (Jul 12, 10:00 am)
Average63 °F79%29.95 "Hg
* Reported Jul 10 9:00 am — Jul 25 9:00 am, Norden. Weather by CustomWeather, © 2017

Note: Actual official high and low records may vary slightly from our data, if they occured in-between our weather recording intervals... More about our weather records

Advertising

Norden Weather History for the Previous 24 Hours

Scroll right to see more
 ConditionsComfort  
Time TempWeatherWind HumidityBarometerVisibility
9:00 am
Tue, Jul 25
63 °FOvercast.6 mph84%29.77 "Hg19 mi
7:00 am61 °FOvercast.5 mph89%29.78 "Hg11 mi
6:00 am61 °FOvercast.5 mph91%29.79 "Hg12 mi
4:00 am62 °FOvercast.5 mph93%29.80 "Hg14 mi
3:00 am61 °FOvercast.5 mph90%29.81 "Hg14 mi
1:00 am60 °FOvercast.2 mph92%29.83 "Hg13 mi
12:00 am60 °FOvercast.2 mph92%29.84 "Hg9 mi
10:00 pm
Mon, Jul 24
61 °FOvercast.3 mph88%29.84 "Hg12 mi
9:00 pm62 °FLight rain. Overcast.2 mph87%29.83 "Hg17 mi
7:00 pm62 °FOvercast.2 mph85%29.83 "Hg12 mi
6:00 pm63 °FOvercast.3 mph81%29.82 "Hg22 mi
4:00 pm62 °FLight rain. Overcast.2 mph79%29.83 "Hg22 mi
3:00 pm62 °FLight rain. Overcast.2 mph81%29.82 "Hg9 mi
1:00 pm61 °FLight rain. Overcast.3 mph78%29.82 "Hg11 mi
12:00 pm61 °FOvercast.3 mph77%29.82 "Hg37 mi
10:00 am60 °FLight rain. Low clouds.2 mph89%29.81 "Hg5 mi
Weather by CustomWeather, © 2017

See weather overviewHow to use our weather pages